20040404,000006,1036796,34.281050,-120.020760,NaN,16.200,33.320,42.206,1914.47,0.0, NaN,14.856,14.829, NaN,24.410,   NaN,15.20,1014.23,87.75,14.76,6.1,4.3,5.6,6.4,293.6,292.6,5.6,6.4,NaN, NaN,NaN,8.5,NaN,1081036807,NaN,NaN,2.0,000006,   NaN,286.7,     NaN,      NaN,0.26,NaN,NaN,16.204, NaN,NaN,NaN, NaN, NaN
20040404,000036,1036825,34.281130,-120.020760,NaN,16.269,33.321,42.272,1932.16,0.0, NaN,14.875,14.847, NaN,24.395,   NaN,15.22,1014.22,87.76,14.77,10.7,7.8,5.7,6.3,292.7,290.8,5.6,6.3,NaN, NaN,NaN,4.8,NaN,1081036837,NaN,NaN,0.0,000036,   NaN,282.8,     NaN,      NaN,0.31,NaN,NaN,16.273, NaN,NaN,NaN, NaN, NaN
20040404,000105,1036855,34.281260,-120.020770,NaN,16.334,33.322,42.334,1946.59,0.0, NaN,14.891,14.864, NaN,24.381,   NaN,15.21,1014.20,87.64,14.76,12.6,11.9,5.9,6.5,290.8,290.5,5.8,6.3,NaN, NaN,NaN,328.2,NaN,1081036867,NaN,NaN,0.4,000066,   NaN,279.2,     NaN,      NaN,0.23,NaN,NaN,16.338, NaN,NaN,NaN, NaN, NaN
20040404,000135,1036885,34.281340,-120.020820,NaN,16.389,33.320,42.384,1954.65,0.0, NaN,14.910,14.883, NaN,24.367,   NaN,15.15,1014.19,87.39,14.75,15.8,14.8,6.4,6.9,292.8,291.9,6.2,6.6,NaN, NaN,NaN,355.8,NaN,1081036897,NaN,NaN,1.0,000096,   NaN,280.4,     NaN,      NaN,0.13,NaN,NaN,16.393, NaN,NaN,NaN, NaN, NaN
20040404,000206,1036916,34.281420,-120.020910,NaN,16.438,33.322,42.433,1958.19,0.0, NaN,14.932,14.904, NaN,24.357,   NaN,15.12,1014.20,87.34,14.72,15.6,14.6,6.7,7.0,294.2,293.3,6.4,6.7,NaN, NaN,NaN,293.5,NaN,1081036927,NaN,NaN,0.5,000126,   NaN,284.5,     NaN,      NaN,0.07,NaN,NaN,16.442, NaN,NaN,NaN, NaN, NaN
20040404,000236,1036946,34.281500,-120.021010,NaN,16.480,33.322,42.474,1949.38,0.0, NaN,14.946,14.914, NaN,24.348,   NaN,15.15,1014.21,87.47,14.73,10.8,10.7,6.6,6.9,292.3,292.2,6.3,6.6,NaN, NaN,NaN,332.1,NaN,1081036957,NaN,NaN,0.7,000156,   NaN,289.6,     NaN,      NaN,0.02,NaN,NaN,16.484, NaN,NaN,NaN, NaN, NaN
20040404,000306,1036976,34.281600,-120.021050,NaN,16.518,33.322,42.509,1930.94,0.0, NaN,14.949,14.914, NaN,24.339,   NaN,15.14,1014.21,87.35,14.74,6.7,5.1,6.3,7.0,291.7,290.6,5.9,6.6,NaN, NaN,NaN,1.8,NaN,1081036987,NaN,NaN,0.9,000186,   NaN,293.7,     NaN,      NaN,0.01,NaN,NaN,16.522, NaN,NaN,NaN, NaN, NaN
20040404,000335,1037005,34.281690,-120.021080,NaN,16.548,33.322,42.538,1914.44,0.0, NaN,14.946,14.909, NaN,24.332,   NaN,15.10,1014.20,87.23,14.70,2.0,0.2,5.7,6.9,291.0,290.0,5.4,6.6,NaN, NaN,NaN,351.8,NaN,1081037017,NaN,NaN,1.3,000216,   NaN,298.8,     NaN,      NaN,0.03,NaN,NaN,16.552, NaN,NaN,NaN, NaN, NaN
20040404,000405,1037035,34.281780,-120.021080,NaN,16.572,33.322,42.561,1896.84,0.0, NaN,14.939,14.899, NaN,24.327,   NaN,15.16,1014.21,87.56,14.76,358.2,355.1,5.1,6.3,291.0,289.2,4.9,6.1,NaN, NaN,NaN,23.6,NaN,1081037047,NaN,NaN,0.4,000246,   NaN,303.9,     NaN,      NaN,0.10,NaN,NaN,16.576, NaN,NaN,NaN, NaN, NaN
20040404,000436,1037066,34.281870,-120.021050,NaN,16.592,33.322,42.581,1892.40,0.0, NaN,14.928,14.886, NaN,24.322,   NaN,15.21,1014.20,87.60,14.75,352.8,349.5,5.1,5.8,291.0,288.4,5.0,5.7,NaN, NaN,NaN,19.1,NaN,1081037077,NaN,NaN,0.0,000276,   NaN,308.9,34.281810,-120.021010,0.26,NaN,NaN,16.596, NaN,NaN,NaN, NaN, NaN
20040404,000506,1037096,34.281990,-120.021030,NaN,16.609,33.322,42.596,1891.70,0.0, NaN,14.918,14.876, NaN,24.318,   NaN,15.22,1014.18,87.54,14.73,345.5,343.3,5.4,5.6,288.3,286.4,5.4,5.6,NaN, NaN,NaN,17.6,NaN,1081037107,NaN,NaN,2.1,000306,   NaN,313.2,34.281930,-120.020980,0.43,NaN,NaN,16.613, NaN,NaN,NaN, NaN, NaN
20040404,000535,1037125,34.282140,-120.021050,NaN,16.619,33.322,42.605,1888.04,0.0, NaN,14.909,14.870, NaN,24.315,   NaN,15.19,1014.18,87.25,14.69,341.5,339.0,5.8,5.8,286.9,284.4,5.8,5.8,NaN, NaN,NaN,352.1,NaN,1081037137,NaN,NaN,1.8,000336,   NaN,309.1,34.282070,-120.020980,0.43,NaN,NaN,16.623, NaN,NaN,NaN, NaN, NaN
20040404,000606,1037156,34.282330,-120.021100,NaN,16.625,33.321,42.611,1889.10,0.0, NaN,14.901,14.860, NaN,24.314,   NaN,15.16,1014.18,87.26,14.66,345.5,342.1,6.0,6.2,287.1,283.9,5.8,6.0,NaN, NaN,NaN,356.0,NaN,1081037167,NaN,NaN,1.1,000366,   NaN,294.9,34.282270,-120.021000,0.32,NaN,NaN,16.629, NaN,NaN,NaN, NaN, NaN
20040404,000636,1037186,34.282470,-120.021240,NaN,16.616,33.321,42.602,1894.66,0.0, NaN,14.889,14.845, NaN,24.315,   NaN,15.14,1014.14,87.26,14.65,355.2,353.0,6.1,6.6,288.4,286.1,5.7,6.2,NaN, NaN,NaN,335.9,NaN,1081037197,NaN,NaN,1.3,000396,   NaN,286.1,34.282440,-120.021110,0.30,NaN,NaN,16.620, NaN,NaN,NaN, NaN, NaN
20040404,000705,1037215,34.282620,-120.021430,NaN,16.596,33.319,42.581,1897.24,0.0, NaN,14.869,14.824, NaN,24.319,   NaN,15.11,1014.14,87.26,14.65,4.8,3.7,6.3,7.0,290.2,289.8,5.7,6.4,NaN, NaN,NaN,312.8,NaN,1081037227,NaN,NaN,1.1,000426,   NaN,288.1,34.282580,-120.021300,0.09,NaN,NaN,16.600, NaN,NaN,NaN, NaN, NaN
20040404,000735,1037245,34.282770,-120.021680,NaN,16.564,33.319,42.551,1895.14,0.0, NaN,14.848,14.802, NaN,24.326,   NaN,15.12,1014.15,87.37,14.65,6.5,4.3,6.3,7.0,292.4,291.1,5.5,6.3,NaN, NaN,NaN,307.7,NaN,1081037257,NaN,NaN,1.7,000456,   NaN,296.4,34.282710,-120.021560,0.08,NaN,NaN,16.568, NaN,NaN,NaN, NaN, NaN
20040404,000806,1037276,34.282980,-120.021930,NaN,16.526,33.319,42.514,1886.93,0.0, NaN,14.836,14.792, NaN,24.335,   NaN,15.15,1014.12,87.47,14.66,0.6,358.6,5.9,7.1,291.3,290.3,5.0,6.1,NaN, NaN,NaN,314.4,NaN,1081037287,NaN,NaN,2.7,000486,   NaN,300.2,34.282900,-120.021810,0.19,NaN,NaN,16.530, NaN,NaN,NaN, NaN, NaN
20040404,000836,1037306,34.283210,-120.022210,NaN,16.490,33.316,42.477,1880.30,0.0, NaN,14.835,14.795, NaN,24.341,   NaN,15.14,1014.11,87.38,14.65,356.1,353.9,5.6,6.9,290.4,289.3,4.6,5.8,NaN, NaN,NaN,309.5,NaN,1081037317,NaN,NaN,2.0,000516,   NaN,301.1,34.283120,-120.022080,0.13,NaN,NaN,16.494, NaN,NaN,NaN, NaN, NaN
20040404,000906,1037335,34.283390,-120.022440,NaN,16.471,33.320,42.463,1858.92,0.0, NaN,14.836,14.795, NaN,24.348,   NaN,15.18,1014.12,87.58,14.68,353.6,352.1,5.5,6.5,289.0,288.3,4.5,5.5,NaN, NaN,NaN,334.7,NaN,1081037347,NaN,NaN,2.6,000546,   NaN,300.2,34.283330,-120.022300,0.09,NaN,NaN,16.475, NaN,NaN,NaN, NaN, NaN
20040404,000935,1037365,34.283580,-120.022600,NaN,16.468,33.320,42.460,1846.49,0.0, NaN,14.837,14.797, NaN,24.349,   NaN,15.18,1014.12,87.40,14.69,355.4,352.5,5.3,6.2,290.5,288.3,4.5,5.4,NaN, NaN,NaN,322.3,NaN,1081037377,NaN,NaN,1.8,000576,   NaN,299.6,34.283510,-120.022470,0.11,NaN,NaN,16.472, NaN,NaN,NaN, NaN, NaN
20040404,001006,1037396,34.283760,-120.022700,NaN,16.467,33.320,42.459,1843.88,0.0, NaN,14.840,14.799, NaN,24.349,   NaN,15.14,1014.10,87.29,14.68,357.6,353.8,5.1,6.3,292.1,289.2,4.4,5.6,NaN, NaN,NaN,351.5,NaN,1081037407,NaN,NaN,2.0,000606,   NaN,300.6,34.283680,-120.022590,0.25,NaN,NaN,16.471, NaN,NaN,NaN, NaN, NaN
20040404,001036,1037426,34.283880,-120.022800,NaN,16.470,33.318,42.459,1832.62,0.0, NaN,14.842,14.801, NaN,24.347,   NaN,15.13,1014.10,87.28,14.67,354.8,352.5,5.0,6.0,289.6,288.1,4.5,5.5,NaN, NaN,NaN,359.0,NaN,1081037437,NaN,NaN,1.9,000636,   NaN,301.4,34.283830,-120.022680,0.22,NaN,NaN,16.474, NaN,NaN,NaN, NaN, NaN
20040404,001105,1037455,34.284040,-120.022840,NaN,16.466,33.320,42.458,1835.11,0.0, NaN,14.844,14.803, NaN,24.349,   NaN,15.13,1014.14,87.29,14.66,353.7,350.2,5.0,5.7,289.1,286.1,4.6,5.4,NaN, NaN,NaN,351.4,NaN,1081037467,NaN,NaN,1.3,000666,   NaN,301.2,34.283960,-120.022730,0.17,NaN,NaN,16.470, NaN,NaN,NaN, NaN, NaN
20040404,001136,1037486,34.284170,-120.022870,NaN,16.452,33.319,42.444,1842.83,0.0, NaN,14.841,14.800, NaN,24.352,   NaN,15.15,1014.14,87.40,14.67,352.1,349.8,4.8,5.4,287.2,285.6,4.6,5.2,NaN, NaN,NaN,314.0,NaN,1081037497,NaN,NaN,0.5,000696,   NaN,301.4,34.284100,-120.022770,0.23,NaN,NaN,16.456, NaN,NaN,NaN, NaN, NaN
20040404,001206,1037516,34.284330,-120.022930,NaN,16.442,33.319,42.434,1844.02,0.0, NaN,14.836,14.794, NaN,24.354,   NaN,15.22,1014.13,87.68,14.70,353.1,350.4,4.5,5.2,287.7,286.0,4.2,4.9,NaN, NaN,NaN,351.4,NaN,1081037527,NaN,NaN,0.9,000726,   NaN,302.2,34.284250,-120.022830,0.22,NaN,NaN,16.446, NaN,NaN,NaN, NaN, NaN
20040404,001236,1037546,34.284480,-120.023000,NaN,16.437,33.319,42.429,1855.91,0.0, NaN,14.833,14.790, NaN,24.355,   NaN,15.27,1014.14,87.71,14.73,354.6,351.7,4.4,5.1,288.5,286.6,4.1,4.8,NaN, NaN,NaN,10.6,NaN,1081037557,NaN,NaN,2.2,000756,   NaN,300.8,34.284410,-120.022900,0.17,NaN,NaN,16.441, NaN,NaN,NaN, NaN, NaN
20040404,001305,1037575,34.284610,-120.023070,NaN,16.428,33.319,42.421,1864.71,0.0, NaN,14.833,14.790, NaN,24.357,   NaN,15.26,1014.15,87.47,14.72,355.7,353.9,4.4,5.3,287.8,287.6,4.1,5.0,NaN, NaN,NaN,359.9,NaN,1081037587,NaN,NaN,1.8,000786,   NaN,297.7,34.284540,-120.022950,0.24,NaN,NaN,16.432, NaN,NaN,NaN, NaN, NaN
20040404,001336,1037606,34.284720,-120.023130,NaN,16.414,33.319,42.408,1859.72,0.0, NaN,14.835,14.796, NaN,24.361,   NaN,15.22,1014.14,87.38,14.71,0.6,357.5,4.3,5.3,291.3,289.4,4.1,5.1,NaN, NaN,NaN,301.9,NaN,1081037617,NaN,NaN,1.5,000816,   NaN,296.2,34.284680,-120.023000,0.23,NaN,NaN,16.418, NaN,NaN,NaN, NaN, NaN
20040404,001405,1037635,34.284890,-120.023200,NaN,16.410,33.319,42.403,1853.21,0.0, NaN,14.842,14.804, NaN,24.361,   NaN,15.22,1014.14,87.40,14.71,1.6,358.8,4.3,5.4,292.7,290.9,4.0,5.1,NaN, NaN,NaN,10.4,NaN,1081037647,NaN,NaN,2.4,000846,   NaN,299.9,34.284810,-120.023080,0.19,NaN,NaN,16.414, NaN,NaN,NaN, NaN, NaN
20040404,001436,1037666,34.285010,-120.023280,NaN,16.410,33.319,42.403,1851.93,0.0, NaN,14.848,14.809, NaN,24.362,   NaN,15.21,1014.18,87.41,14.71,359.0,357.6,4.4,5.4,291.2,291.3,4.0,5.0,NaN, NaN,NaN,12.4,NaN,1081037677,NaN,NaN,1.9,000876,   NaN,301.2,34.284950,-120.023160,0.15,NaN,NaN,16.414, NaN,NaN,NaN, NaN, NaN
20040404,001506,1037696,34.285140,-120.023340,NaN,16.410,33.319,42.403,1846.64,0.0, NaN,14.851,14.813, NaN,24.361,   NaN,15.25,1014.17,87.58,14.72,356.4,354.5,4.1,5.0,289.8,289.4,3.8,4.7,NaN, NaN,NaN,358.0,NaN,1081037707,NaN,NaN,1.7,000906,   NaN,301.6,34.285080,-120.023220,0.17,NaN,NaN,16.414, NaN,NaN,NaN, NaN, NaN
20040404,001536,1037726,34.285280,-120.023360,NaN,16.415,33.319,42.408,1839.84,0.0, NaN,14.852,14.814, NaN,24.360,   NaN,15.25,1014.15,87.37,14.70,353.9,351.8,3.9,4.7,288.3,287.3,3.6,4.5,NaN, NaN,NaN,327.5,NaN,1081037737,NaN,NaN,0.7,000936,   NaN,300.4,34.285220,-120.023250,0.28,NaN,NaN,16.419, NaN,NaN,NaN, NaN, NaN
20040404,001605,1037755,34.285410,-120.023380,NaN,16.422,33.319,42.415,1832.60,0.0, NaN,14.851,14.811, NaN,24.358,   NaN,15.29,1014.16,87.65,14.74,352.3,352.8,3.7,4.4,286.2,287.4,3.6,4.2,NaN, NaN,NaN,4.1,NaN,1081037767,NaN,NaN,1.0,000966,   NaN,297.2,34.285340,-120.023260,0.19,NaN,NaN,16.426, NaN,NaN,NaN, NaN, NaN
20040404,001635,1037785,34.285510,-120.023390,NaN,16.428,33.319,42.421,1828.75,0.0, NaN,14.851,14.808, NaN,24.357,   NaN,15.36,1014.15,87.89,14.78,358.3,357.2,3.3,4.0,289.2,289.1,3.1,3.8,NaN, NaN,NaN,13.3,NaN,1081037797,NaN,NaN,1.3,000996,   NaN,293.9,34.285470,-120.023280,0.23,NaN,NaN,16.432, NaN,NaN,NaN, NaN, NaN
20040404,001705,1037815,34.285610,-120.023370,NaN,16.439,33.319,42.431,1823.83,0.0, NaN,14.851,14.809, NaN,24.355,   NaN,15.40,1014.16,87.89,14.82,1.9,359.9,3.0,3.8,288.1,287.8,2.9,3.7,NaN, NaN,NaN,14.5,NaN,1081037827,NaN,NaN,0.0,001026,   NaN,291.7,34.285580,-120.023270,0.17,NaN,NaN,16.443, NaN,NaN,NaN, NaN, NaN
20040404,001736,1037845,34.285710,-120.023350,NaN,16.450,33.319,42.442,1814.61,0.0, NaN,14.851,14.809, NaN,24.352,   NaN,15.38,1014.14,87.62,14.82,4.7,2.8,3.3,3.9,290.6,289.9,3.2,3.8,NaN, NaN,NaN,0.6,NaN,1081037857,NaN,NaN,0.7,001056,   NaN,298.1,34.285650,-120.023220,0.17,NaN,NaN,16.454, NaN,NaN,NaN, NaN, NaN
20040404,001806,1037876,34.285820,-120.023330,NaN,16.460,33.319,42.451,1799.96,0.0, NaN,14.850,14.808, NaN,24.350,   NaN,15.30,1014.13,87.19,14.78,3.7,2.3,3.7,4.2,294.1,293.9,3.6,4.1,NaN, NaN,NaN,358.6,NaN,1081037887,NaN,NaN,0.0,001086,   NaN,304.5,34.285740,-120.023230,0.21,NaN,NaN,16.464, NaN,NaN,NaN, NaN, NaN
20040404,001835,1037905,34.285950,-120.023350,NaN,16.470,33.319,42.460,1797.36,0.0, NaN,14.849,14.807, NaN,24.347,   NaN,15.26,1014.13,87.12,14.76,356.4,355.9,3.7,4.5,291.4,292.4,3.6,4.3,NaN, NaN,NaN,349.2,NaN,1081037917,NaN,NaN,1.1,001116,   NaN,303.9,34.285880,-120.023250,0.18,NaN,NaN,16.474, NaN,NaN,NaN, NaN, NaN
20040404,001906,1037936,34.286090,-120.023410,NaN,16.475,33.319,42.466,1792.96,0.0, NaN,14.844,14.801, NaN,24.346,   NaN,15.26,1014.12,87.13,14.75,354.1,353.3,3.8,4.5,289.9,290.7,3.6,4.3,NaN, NaN,NaN,355.2,NaN,1081037947,NaN,NaN,2.1,001146,   NaN,298.7,34.286050,-120.023310,0.16,NaN,NaN,16.479, NaN,NaN,NaN, NaN, NaN
20040404,001936,1037966,34.286240,-120.023510,NaN,16.478,33.319,42.468,1783.22,0.0, NaN,14.833,14.788, NaN,24.345,   NaN,15.28,1014.11,87.23,14.75,358.5,357.4,4.0,4.8,289.7,290.6,3.7,4.5,NaN, NaN,NaN,248.1,NaN,1081037977,NaN,NaN,1.2,001176,   NaN,291.1,34.286200,-120.023380,0.37,NaN,NaN,16.482, NaN,NaN,NaN, NaN, NaN
20040404,002006,1037996,34.286390,-120.023640,NaN,16.477,33.318,42.466,1773.12,0.0, NaN,14.814,14.767, NaN,24.345,   NaN,15.25,1014.12,87.12,14.75,3.7,3.0,4.3,5.0,290.9,291.2,3.8,4.6,NaN, NaN,NaN,315.6,NaN,1081038007,NaN,NaN,1.5,001206,   NaN,289.2,34.286340,-120.023500,0.26,NaN,NaN,16.481, NaN,NaN,NaN, NaN, NaN
20040404,002035,1038025,34.286540,-120.023790,NaN,16.476,33.318,42.466,1773.23,0.0, NaN,14.789,14.741, NaN,24.346,   NaN,15.20,1014.13,87.01,14.74,6.5,6.9,4.6,5.0,292.6,293.4,4.0,4.4,NaN, NaN,NaN,335.4,NaN,1081038037,NaN,NaN,2.1,001236,   NaN,291.6,34.286480,-120.023670,0.10,NaN,NaN,16.480, NaN,NaN,NaN, NaN, NaN
20040404,002106,1038056,34.286680,-120.023960,NaN,16.478,33.319,42.468,1772.16,0.0, NaN,14.769,14.719, NaN,24.346,   NaN,15.22,1014.13,87.27,14.74,4.7,5.2,4.4,4.9,291.8,292.8,3.8,4.2,NaN, NaN,NaN,324.7,NaN,1081038067,NaN,NaN,1.5,001266,   NaN,295.4,34.286630,-120.023840,0.16,NaN,NaN,16.482, NaN,NaN,NaN, NaN, NaN
20040404,002135,1038085,34.286850,-120.024140,NaN,16.475,33.318,42.464,1768.64,0.0, NaN,14.763,14.716, NaN,24.346,   NaN,15.26,1014.13,87.33,14.77,359.7,0.3,4.1,4.9,289.4,290.9,3.4,4.2,NaN, NaN,NaN,333.7,NaN,1081038097,NaN,NaN,1.8,001296,   NaN,297.7,34.286780,-120.024030,0.08,NaN,NaN,16.479, NaN,NaN,NaN, NaN, NaN
20040404,002206,1038116,34.287020,-120.024330,NaN,16.467,33.316,42.455,1764.70,0.0, NaN,14.764,14.719, NaN,24.346,   NaN,15.25,1014.14,87.30,14.78,356.9,357.0,4.0,5.0,287.6,288.9,3.2,4.3,NaN, NaN,NaN,310.7,NaN,1081038127,NaN,NaN,2.0,001326,   NaN,296.2,34.286940,-120.024200,0.25,NaN,NaN,16.471, NaN,NaN,NaN, NaN, NaN
20040404,002236,1038146,34.287190,-120.024520,NaN,16.460,33.318,42.451,1762.92,0.0, NaN,14.769,14.728, NaN,24.349,   NaN,15.28,1014.15,87.44,14.78,357.3,358.0,4.0,5.1,287.1,289.2,3.3,4.3,NaN, NaN,NaN,311.0,NaN,1081038157,NaN,NaN,1.3,001356,   NaN,293.6,34.287120,-120.024380,0.18,NaN,NaN,16.464, NaN,NaN,NaN, NaN, NaN
20040404,002306,1038175,34.287360,-120.024710,NaN,16.455,33.318,42.446,1764.75,0.0, NaN,14.782,14.745, NaN,24.350,   NaN,15.28,1014.14,87.42,14.77,0.0,359.6,4.1,5.1,287.8,289.4,3.4,4.3,NaN, NaN,NaN,282.7,NaN,1081038187,NaN,NaN,1.6,001386,   NaN,294.2,34.287270,-120.024560,0.16,NaN,NaN,16.459, NaN,NaN,NaN, NaN, NaN
20040404,002336,1038206,34.287540,-120.024900,NaN,16.450,33.318,42.440,1762.25,0.0, NaN,14.810,14.777, NaN,24.352,   NaN,15.28,1014.12,87.37,14.77,0.9,359.2,4.2,5.1,289.1,289.0,3.5,4.3,NaN, NaN,NaN,305.7,NaN,1081038218,NaN,NaN,1.2,001417,   NaN,295.2,34.287440,-120.024760,0.06,NaN,NaN,16.454, NaN,NaN,NaN, NaN, NaN
20040404,002406,1038236,34.287690,-120.025060,NaN,16.440,33.318,42.431,1761.31,0.0, NaN,14.840,14.807, NaN,24.354,   NaN,15.25,1014.12,87.13,14.76,359.1,357.4,4.2,5.2,287.8,287.3,3.5,4.5,NaN, NaN,NaN,325.3,NaN,1081038248,NaN,NaN,0.8,001447,   NaN,293.1,34.287600,-120.024900,0.11,NaN,NaN,16.444, NaN,NaN,NaN, NaN, NaN
20040404,002436,1038266,34.287840,-120.025180,NaN,16.414,33.316,42.404,1756.51,0.0, NaN,14.860,14.827, NaN,24.358,   NaN,15.24,1014.12,87.29,14.76,359.8,359.0,4.2,5.2,287.4,287.9,3.6,4.7,NaN, NaN,NaN,335.2,NaN,1081038278,NaN,NaN,1.9,001477,   NaN,291.4,34.287740,-120.025020,0.11,NaN,NaN,16.418, NaN,NaN,NaN, NaN, NaN
20040404,002506,1038296,34.287960,-120.025290,NaN,16.390,33.317,42.383,1749.91,0.0, NaN,14.869,14.832, NaN,24.365,   NaN,15.23,1014.09,87.17,14.73,3.1,1.9,4.3,5.1,289.8,289.3,3.8,4.6,NaN, NaN,NaN,350.5,NaN,1081038308,NaN,NaN,1.7,001507,   NaN,291.6,34.287870,-120.025130,0.09,NaN,NaN,16.394, NaN,NaN,NaN, NaN, NaN
20040404,002536,1038326,34.288090,-120.025410,NaN,16.380,33.318,42.373,1741.85,0.0, NaN,14.865,14.825, NaN,24.367,   NaN,15.24,1014.11,87.38,14.75,3.8,2.9,4.3,5.0,291.5,291.1,3.8,4.5,NaN, NaN,NaN,308.1,NaN,1081038338,NaN,NaN,0.6,001537,   NaN,297.3,34.287980,-120.025270,0.09,NaN,NaN,16.384, NaN,NaN,NaN, NaN, NaN
20040404,002606,1038355,34.288240,-120.025560,NaN,16.379,33.318,42.372,1735.81,0.0, NaN,14.854,14.811, NaN,24.368,   NaN,15.27,1014.11,87.50,14.79,0.8,359.6,4.0,4.8,291.7,291.1,3.4,4.2,NaN, NaN,NaN,292.3,NaN,1081038368,NaN,NaN,0.8,001567,   NaN,300.9,34.288150,-120.025430,0.09,NaN,NaN,16.383, NaN,NaN,NaN, NaN, NaN
20040404,002636,1038386,34.288420,-120.025680,NaN,16.381,33.318,42.374,1729.35,0.0, NaN,14.837,14.791, NaN,24.367,   NaN,15.30,1014.13,87.52,14.78,357.7,355.4,3.8,4.5,291.2,289.3,3.2,3.9,NaN, NaN,NaN,343.6,NaN,1081038398,NaN,NaN,0.9,001597,   NaN,300.4,34.288320,-120.025570,0.17,NaN,NaN,16.385, NaN,NaN,NaN, NaN, NaN
20040404,002706,1038416,34.288600,-120.025830,NaN,16.378,33.317,42.371,1727.85,0.0, NaN,14.811,14.764, NaN,24.367,   NaN,15.32,1014.12,87.52,14.80,358.4,355.8,3.9,4.5,291.1,289.4,3.2,3.9,NaN, NaN,NaN,303.6,NaN,1081038428,NaN,NaN,1.4,001627,   NaN,296.1,34.288490,-120.025700,0.22,NaN,NaN,16.382, NaN,NaN,NaN, NaN, NaN
20040404,002736,1038446,34.288750,-120.025990,NaN,16.351,33.317,42.345,1721.25,0.0, NaN,14.780,14.729, NaN,24.374,   NaN,15.26,1014.10,87.19,14.77,359.9,358.9,4.2,4.9,290.2,290.3,3.5,4.3,NaN, NaN,NaN,339.0,NaN,1081038458,NaN,NaN,1.2,001657,   NaN,292.5,34.288650,-120.025840,0.20,NaN,NaN,16.355, NaN,NaN,NaN, NaN, NaN
20040404,002806,1038476,34.288890,-120.026150,NaN,16.325,33.317,42.320,1712.50,0.0, NaN,14.747,14.696, NaN,24.380,   NaN,15.20,1014.13,87.01,14.73,2.4,2.3,4.4,5.4,290.9,292.2,3.8,4.7,NaN, NaN,NaN,311.9,NaN,1081038488,NaN,NaN,0.7,001687,   NaN,294.6,34.288800,-120.026010,0.22,NaN,NaN,16.329, NaN,NaN,NaN, NaN, NaN
20040404,002836,1038506,34.289060,-120.026300,NaN,16.316,33.317,42.312,1706.81,0.0, NaN,14.716,14.664, NaN,24.382,   NaN,15.19,1014.11,87.17,14.74,3.3,1.9,4.4,5.3,292.5,291.7,3.8,4.6,NaN, NaN,NaN,332.0,NaN,1081038518,NaN,NaN,1.1,001717,   NaN,296.2,34.288950,-120.026150,0.27,NaN,NaN,16.320, NaN,NaN,NaN, NaN, NaN
20040404,002906,1038536,34.289230,-120.026450,NaN,16.313,33.317,42.309,1696.59,0.0, NaN,14.685,14.634, NaN,24.382,   NaN,15.20,1014.11,87.16,14.71,1.1,359.8,4.4,5.2,291.4,290.9,3.7,4.6,NaN, NaN,NaN,333.2,NaN,1081038548,NaN,NaN,1.7,001747,   NaN,295.2,34.289120,-120.026310,0.20,NaN,NaN,16.317, NaN,NaN,NaN, NaN, NaN
20040404,002936,1038566,34.289360,-120.026630,NaN,16.309,33.315,42.302,1688.68,0.0, NaN,14.659,14.607, NaN,24.381,   NaN,15.18,1014.13,87.20,14.71,1.1,358.3,4.3,5.2,291.4,289.1,3.6,4.6,NaN, NaN,NaN,350.5,NaN,1081038578,NaN,NaN,2.3,001777,   NaN,294.1,34.289280,-120.026490,0.07,NaN,NaN,16.313, NaN,NaN,NaN, NaN, NaN
20040404,003006,1038596,34.289530,-120.026810,NaN,16.295,33.314,42.288,1672.17,0.0, NaN,14.634,14.583, NaN,24.384,   NaN,15.22,1014.13,87.47,14.72,357.8,358.7,4.3,5.2,286.9,288.7,3.6,4.5,NaN, NaN,NaN,303.8,NaN,1081038608,NaN,NaN,1.1,001807,   NaN,295.1,34.289430,-120.026680,0.21,NaN,NaN,16.299, NaN,NaN,NaN, NaN, NaN
20040404,003036,1038626,34.289690,-120.027000,NaN,16.274,33.317,42.272,1662.08,0.0, NaN,14.617,14.567, NaN,24.391,   NaN,15.24,1014.13,87.49,14.74,355.3,358.0,4.2,5.3,284.6,288.7,3.5,4.5,NaN, NaN,NaN,303.3,NaN,1081038638,NaN,NaN,1.8,001837,   NaN,295.8,34.289590,-120.026870,0.19,NaN,NaN,16.278, NaN,NaN,NaN, NaN, NaN
20040404,003106,1038656,34.289870,-120.027180,NaN,16.249,33.316,42.247,1654.64,0.0, NaN,14.606,14.555, NaN,24.396,   NaN,15.23,1014.12,87.39,14.74,356.2,357.2,4.3,5.5,286.1,288.6,3.6,4.7,NaN, NaN,NaN,285.4,NaN,1081038668,NaN,NaN,1.2,001867,   NaN,295.4,34.289770,-120.027050,0.13,NaN,NaN,16.253, NaN,NaN,NaN, NaN, NaN
20040404,003136,1038685,34.290030,-120.027370,NaN,16.225,33.316,42.224,1648.57,0.0, NaN,14.601,14.554, NaN,24.401,   NaN,15.17,1014.13,87.15,14.71,357.0,356.6,4.5,5.5,287.0,287.7,3.8,4.8,NaN, NaN,NaN,328.7,NaN,1081038698,NaN,NaN,1.6,001897,   NaN,294.2,34.289930,-120.027230,0.07,NaN,NaN,16.229, NaN,NaN,NaN, NaN, NaN
20040404,003206,1038716,34.290180,-120.027540,NaN,16.199,33.316,42.199,1646.67,0.0, NaN,14.601,14.555, NaN,24.407,   NaN,15.17,1014.16,87.36,14.70,356.1,355.4,4.4,5.5,285.8,286.1,3.7,4.8,NaN, NaN,NaN,320.4,NaN,1081038728,NaN,NaN,1.6,001927,   NaN,295.9,34.290080,-120.027410,0.13,NaN,NaN,16.203, NaN,NaN,NaN, NaN, NaN
20040404,003236,1038746,34.290340,-120.027700,NaN,16.173,33.316,42.175,1632.81,0.0, NaN,14.606,14.559, NaN,24.413,   NaN,15.16,1014.13,87.32,14.69,354.4,352.8,4.4,5.4,284.6,283.9,3.8,4.8,NaN, NaN,NaN,310.4,NaN,1081038758,NaN,NaN,1.3,001957,   NaN,298.6,34.290240,-120.027580,0.23,NaN,NaN,16.177, NaN,NaN,NaN, NaN, NaN
20040404,003306,1038776,34.290510,-120.027850,NaN,16.153,33.316,42.155,1631.25,0.0, NaN,14.611,14.568, NaN,24.418,   NaN,15.17,1014.14,87.32,14.67,350.6,348.1,4.7,5.3,282.2,280.1,4.1,4.7,NaN, NaN,NaN,302.3,NaN,1081038788,NaN,NaN,1.7,001987,   NaN,298.6,34.290410,-120.027720,0.26,NaN,NaN,16.157, NaN,NaN,NaN, NaN, NaN
20040404,003336,1038806,34.290660,-120.027990,NaN,16.136,33.316,42.140,1639.21,0.0, NaN,14.618,14.578, NaN,24.422,   NaN,15.17,1014.15,87.35,14.68,348.7,345.7,4.9,5.1,281.1,278.2,4.3,4.6,NaN, NaN,NaN,344.7,NaN,1081038818,NaN,NaN,1.9,002017,   NaN,296.2,34.290580,-120.027850,0.17,NaN,NaN,16.140, NaN,NaN,NaN, NaN, NaN
20040404,003406,1038836,34.290840,-120.028130,NaN,16.119,33.316,42.124,1641.38,0.0, NaN,14.633,14.593, NaN,24.426,   NaN,15.18,1014.15,87.36,14.66,349.8,347.9,4.8,5.3,279.8,278.3,4.3,4.7,NaN, NaN,NaN,307.8,NaN,1081038848,NaN,NaN,1.8,002047,   NaN,292.3,34.290750,-120.027990,0.29,NaN,NaN,16.123, NaN,NaN,NaN, NaN, NaN
20040404,003436,1038866,34.290990,-120.028280,NaN,16.111,33.316,42.115,1644.45,0.0, NaN,14.647,14.608, NaN,24.427,   NaN,15.18,1014.16,87.42,14.66,354.3,352.2,4.6,5.4,281.5,280.3,4.1,4.9,NaN, NaN,NaN,329.7,NaN,1081038878,NaN,NaN,1.5,002077,   NaN,292.1,34.290910,-120.028140,0.23,NaN,NaN,16.115, NaN,NaN,NaN, NaN, NaN
20040404,003506,1038896,34.291160,-120.028440,NaN,16.105,33.316,42.111,1641.73,0.0, NaN,14.660,14.621, NaN,24.429,   NaN,15.22,1014.15,87.68,14.71,356.7,354.3,4.4,5.6,283.3,281.9,3.8,5.0,NaN, NaN,NaN,318.3,NaN,1081038908,NaN,NaN,1.1,002107,   NaN,293.9,34.291050,-120.028310,0.25,NaN,NaN,16.109, NaN,NaN,NaN, NaN, NaN
20040404,003536,1038926,34.291350,-120.028620,NaN,16.108,33.314,42.111,1639.24,0.0, NaN,14.672,14.634, NaN,24.426,   NaN,15.23,1014.12,87.67,14.72,356.4,354.1,4.3,5.5,283.6,282.5,3.7,4.9,NaN, NaN,NaN,340.4,NaN,1081038938,NaN,NaN,0.7,002137,   NaN,294.6,34.291220,-120.028490,0.22,NaN,NaN,16.112, NaN,NaN,NaN, NaN, NaN
20040404,003606,1038956,34.291490,-120.028780,NaN,16.108,33.317,42.114,1639.29,0.0, NaN,14.682,14.646, NaN,24.429,   NaN,15.21,1014.13,87.52,14.71,357.4,355.2,4.5,5.5,284.3,283.1,3.9,4.9,NaN, NaN,NaN,321.9,NaN,1081038968,NaN,NaN,1.8,002167,   NaN,285.0,34.291390,-120.028650,0.21,NaN,NaN,16.112, NaN,NaN,NaN, NaN, NaN
20040404,003636,1038986,34.291610,-120.028970,NaN,16.115,33.313,42.116,1637.20,0.0, NaN,14.691,14.652, NaN,24.424,   NaN,15.18,1014.13,87.59,14.71,4.0,1.4,4.9,5.6,285.1,283.4,4.3,4.9,NaN, NaN,NaN,309.6,NaN,1081038998,NaN,NaN,1.2,002197,   NaN,274.2,34.291540,-120.028810,0.24,NaN,NaN,16.119, NaN,NaN,NaN, NaN, NaN
20040404,003706,1039016,34.291690,-120.029170,NaN,16.121,33.316,42.126,1632.55,0.0, NaN,14.692,14.653, NaN,24.425,   NaN,15.17,1014.13,87.67,14.71,12.5,11.0,5.1,5.5,285.3,284.5,4.5,4.8,NaN, NaN,NaN,279.1,NaN,1081039028,NaN,NaN,1.1,002227,   NaN,265.6,34.291640,-120.029000,0.12,NaN,NaN,16.125, NaN,NaN,NaN, NaN, NaN